| time (UTC) | temp C | wind direction | speed KPH | gust KPH | rain 1hr cm | rain 24hr cm | rain mn cm | humidity % | barometer mb |
| 20260906103048 | 18 | 355 | 0.0 | 0.0 | 0.00 | 0.00 | 0.00 | 95 | 1010.6 |
| 20260906101614 | 18 | 355 | 3.2 | 0.0 | 0.00 | 0.00 | 0.00 | 96 | 1010.7 |
| 20260906100056 | 17 | 355 | 0.0 | 0.0 | 0.00 | 0.00 | 0.00 | 95 | 1010.5 |
| 20260906094616 | 17 | 355 | 0.0 | 0.0 | 0.00 | 0.00 | 0.00 | 96 | 1010.2 |
| 20260906093040 | 17 | 355 | 0.0 | 0.0 | 0.00 | 0.00 | 0.00 | 95 | 1010.1 |
| 20260906091536 | 17 | 355 | 0.0 | 0.0 | 0.00 | 0.00 | 0.00 | 94 | 1009.8 |
| 20260906090039 | 18 | 355 | 1.6 | 0.0 | 0.00 | 0.00 | 0.00 | 95 | 1009.8 |
| 20260906084554 | 18 | 355 | 1.6 | 0.0 | 0.00 | 0.00 | 0.00 | 95 | 1009.7 |
| 20260906083058 | 18 | 355 | 1.6 | 0.0 | 0.00 | 0.00 | 0.00 | 95 | 1009.7 |
| 20260906081554 | 17 | 300 | 1.6 | 0.0 | 0.00 | 0.00 | 0.00 | 95 | 1009.7 |
| 20260906080039 | 17 | 300 | 0.0 | 0.0 | 0.00 | 0.00 | 0.00 | 94 | 1009.9 |
| 20260906074600 | 17 | 300 | 4.8 | 0.0 | 0.00 | 0.00 | 0.00 | 93 | 1009.7 |
| 20260906073054 | 18 | 298 | 0.0 | 0.0 | 0.00 | 0.00 | 0.00 | 92 | 1009.8 |
| 20260906071537 | 18 | 298 | 3.2 | 0.0 | 0.00 | 0.00 | 0.00 | 92 | 1009.6 |
| 20260906070047 | 18 | 298 | 4.8 | 0.0 | 0.00 | 0.00 | 0.00 | 92 | 1009.7 |
| 20260906064502 | 19 | 299 | 4.8 | 0.0 | 0.00 | 0.00 | 0.00 | 91 | 1009.9 |
| 20260906063040 | 19 | 299 | 4.8 | 0.0 | 0.00 | 0.00 | 0.00 | 91 | 1010.2 |
| 20260906061608 | 19 | 301 | 1.6 | 0.0 | 0.00 | 0.00 | 0.00 | 90 | 1010.3 |
| 20260906054539 | 20 | 298 | 8.0 | 0.0 | 0.00 | 0.00 | 0.00 | 88 | 1010.4 |
| 20260906053039 | 20 | 298 | 6.4 | 0.0 | 0.00 | 0.00 | 0.00 | 88 | 1010.5 |
| 20260906051601 | 20 | 313 | 0.0 | 0.0 | 0.00 | 0.00 | 0.00 | 89 | 1010.5 |
| 20260906050042 | 20 | 315 | 1.6 | 0.0 | 0.00 | 0.00 | 0.00 | 89 | 1010.7 |
| 20260906044559 | 20 | 309 | 1.6 | 0.0 | 0.00 | 0.00 | 0.00 | 89 | 1010.7 |
| 20260906043044 | 20 | 309 | 1.6 | 0.0 | 0.00 | 0.00 | 0.00 | 89 | 1010.7 |
| 20260906041552 | 20 | 311 | 3.2 | 0.0 | 0.00 | 0.00 | 0.00 | 90 | 1010.7 |
| 20260906040032 | 19 | 304 | 1.6 | 0.0 | 0.00 | 0.00 | 0.00 | 90 | 1010.6 |
| 20260906034534 | 19 | 305 | 3.2 | 0.0 | 0.00 | 0.00 | 0.00 | 90 | 1010.8 |
| 20260906033037 | 20 | 305 | 0.0 | 0.0 | 0.00 | 0.00 | 0.00 | 90 | 1010.8 |
| 20260906031629 | 20 | 305 | 3.2 | 0.0 | 0.00 | 0.00 | 0.00 | 89 | 1010.9 |
| 20260906024551 | 20 | 305 | 0.0 | 0.0 | 0.00 | 0.00 | 0.00 | 88 | 1011.2 |
| 20260906023039 | 20 | 305 | 0.0 | 0.0 | 0.00 | 0.00 | 0.00 | 88 | 1011.1 |
| 20260906021523 | 20 | 305 | 0.0 | 0.0 | 0.00 | 0.00 | 0.00 | 88 | 1010.9 |
| 20260906020020 | 20 | 305 | 3.2 | 0.0 | 0.00 | 0.00 | 0.00 | 87 | 1010.9 |
| 20260906014538 | 21 | 305 | 4.8 | 0.0 | 0.00 | 0.00 | 0.00 | 85 | 1010.6 |
| 20260906013100 | 21 | 311 | 4.8 | 0.0 | 0.00 | 0.00 | 0.00 | 83 | 1010.6 |
| 20260906011609 | 21 | 314 | 1.6 | 0.0 | 0.00 | 0.00 | 0.00 | 83 | 1010.5 |
| 20260906010015 | 21 | 315 | 4.8 | 0.0 | 0.00 | 0.00 | 0.00 | 82 | 1010.6 |
| 20260906004617 | 21 | 360 | 4.8 | 0.0 | 0.00 | 0.00 | 0.00 | 82 | 1010.2 |
| 20260906003015 | 22 | 5 | 3.2 | 0.0 | 0.00 | 0.00 | 0.00 | 82 | 1009.8 |
| 20260906001541 | 22 | 323 | 3.2 | 0.0 | 0.00 | 0.00 | 0.00 | 80 | 1009.8 |
| 20260906000040 | 23 | 309 | 4.8 | 0.0 | 0.00 | 0.00 | 0.00 | 77 | 1009.7 |
| 20260905234612 | 23 | 313 | 6.4 | 0.0 | 0.00 | 0.00 | 0.00 | 76 | 1009.6 |
| 20260905233005 | 23 | 298 | 4.8 | 0.0 | 0.00 | 0.00 | 0.00 | 74 | 1009.6 |
| 20260905231543 | 24 | 325 | 6.4 | 0.0 | 0.00 | 0.00 | 0.00 | 72 | 1009.4 |
| 20260905230106 | 24 | 294 | 6.4 | 0.0 | 0.00 | 0.00 | 0.00 | 71 | 1009.6 |
| 20260905230008 | 24 | 297 | 6.4 | 0.0 | 0.00 | 0.00 | 0.00 | 71 | 1009.7 |
| 20260905224633 | 25 | 301 | 8.0 | 0.0 | 0.00 | 0.00 | 0.00 | 69 | 1009.7 |
| 20260905223032 | 25 | 267 | 8.0 | 0.0 | 0.00 | 0.00 | 0.00 | 68 | 1009.6 |
| 20260905221616 | 26 | 296 | 9.7 | 0.0 | 0.00 | 0.00 | 0.00 | 65 | 1009.8 |
| 20260905220056 | 26 | 24 | 8.0 | 0.0 | 0.00 | 0.00 | 0.00 | 65 | 1009.8 |
| 20260905214612 | 26 | 330 | 9.7 | 0.0 | 0.00 | 0.00 | 0.00 | 62 | 1009.8 |
| 20260905213000 | 26 | 311 | 9.7 | 0.0 | 0.00 | 0.00 | 0.00 | 62 | 1010.0 |
| 20260905211610 | 26 | 300 | 8.0 | 0.0 | 0.00 | 0.00 | 0.00 | 64 | 1009.8 |
| 20260905210052 | 26 | 300 | 8.0 | 0.0 | 0.00 | 0.00 | 0.00 | 63 | 1009.7 |
| 20260905204557 | 26 | 322 | 12.9 | 0.0 | 0.00 | 0.00 | 0.00 | 63 | 1009.4 |
| 20260905203036 | 26 | 282 | 11.3 | 0.0 | 0.00 | 0.00 | 0.00 | 64 | 1009.6 |
| 20260905201539 | 25 | 289 | 11.3 | 0.0 | 0.00 | 0.00 | 0.00 | 68 | 1009.5 |
| 20260905200020 | 25 | 282 | 11.3 | 0.0 | 0.00 | 0.00 | 0.00 | 70 | 1009.4 |
| 20260905194501 | 24 | 281 | 11.3 | 0.0 | 0.00 | 0.00 | 0.00 | 72 | 1009.2 |
| 20260905193018 | 24 | 310 | 9.7 | 0.0 | 0.00 | 0.00 | 0.00 | 72 | 1009.1 |
| 20260905191528 | 23 | 315 | 16.1 | 0.0 | 0.00 | 0.00 | 0.00 | 71 | 1008.9 |
| 20260905190019 | 23 | 305 | 16.1 | 0.0 | 0.00 | 0.00 | 0.00 | 70 | 1008.8 |
| 20260905184504 | 22 | 279 | 11.3 | 0.0 | 0.00 | 0.00 | 0.00 | 77 | 1009.1 |
| 20260905183019 | 22 | 300 | 14.5 | 0.0 | 0.00 | 0.00 | 0.00 | 77 | 1009.4 |
| 20260905181625 | 21 | 286 | 11.3 | 0.0 | 0.00 | 0.00 | 0.00 | 83 | 1009.7 |
| 20260905180058 | 21 | 286 | 9.7 | 0.0 | 0.00 | 0.00 | 0.00 | 83 | 1009.5 |
| 20260905174606 | 20 | 355 | 9.7 | 0.0 | 0.00 | 0.00 | 0.00 | 85 | 1010.5 |
| 20260905173056 | 20 | 311 | 11.3 | 0.0 | 0.00 | 0.00 | 0.00 | 84 | 1011.4 |
| 20260905171603 | 21 | 315 | 11.3 | 0.0 | 0.00 | 0.00 | 0.00 | 81 | 1012.1 |
| 20260905170003 | 23 | 5 | 17.7 | 0.0 | 0.00 | 0.00 | 0.00 | 72 | 1012.9 |
| 20260905164634 | 26 | 5 | 12.9 | 0.0 | 0.00 | 0.00 | 0.00 | 75 | 1012.0 |
| 20260905163004 | 27 | 311 | 11.3 | 0.0 | 0.00 | 0.00 | 0.00 | 73 | 1012.1 |
| 20260905161610 | 27 | 360 | 11.3 | 0.0 | 0.00 | 0.00 | 0.00 | 71 | 1011.8 |
| 20260905160032 | 27 | 360 | 9.7 | 0.0 | 0.00 | 0.00 | 0.00 | 71 | 1011.4 |
| 20260905154619 | 27 | 11 | 14.5 | 0.0 | 0.00 | 0.00 | 0.00 | 71 | 1011.7 |
| 20260905153002 | 27 | 5 | 12.9 | 0.0 | 0.00 | 0.00 | 0.00 | 76 | 1011.8 |
| 20260905151538 | 27 | 323 | 8.0 | 0.0 | 0.00 | 0.00 | 0.00 | 77 | 1011.6 |
| 20260905150059 | 27 | 306 | 14.5 | 0.0 | 0.00 | 0.00 | 0.00 | 76 | 1011.5 |
| 20260905144513 | 26 | 302 | 14.5 | 0.0 | 0.00 | 0.00 | 0.00 | 78 | 1011.5 |
| 20260905143025 | 26 | 308 | 17.7 | 0.0 | 0.00 | 0.00 | 0.00 | 78 | 1011.6 |
| 20260905141543 | 26 | 306 | 16.1 | 0.0 | 0.00 | 0.00 | 0.00 | 78 | 1011.7 |
| 20260905140021 | 25 | 298 | 19.3 | 0.0 | 0.00 | 0.00 | 0.00 | 79 | 1011.5 |
| 20260905134612 | 26 | 286 | 11.3 | 0.0 | 0.00 | 0.00 | 0.00 | 79 | 1011.5 |
| 20260905133056 | 25 | 302 | 9.7 | 0.0 | 0.00 | 0.00 | 0.00 | 80 | 1011.5 |
| 20260905131521 | 25 | 293 | 9.7 | 0.0 | 0.00 | 0.00 | 0.00 | 81 | 1011.8 |
| 20260905130027 | 24 | 310 | 4.8 | 0.0 | 0.00 | 0.00 | 0.00 | 83 | 1012.0 |
| 20260905124637 | 23 | 298 | 4.8 | 0.0 | 0.00 | 0.00 | 0.00 | 84 | 1012.0 |
| 20260905123022 | 23 | 298 | 4.8 | 0.0 | 0.00 | 0.00 | 0.00 | 85 | 1012.1 |
| 20260905121540 | 23 | 302 | 6.4 | 0.0 | 0.00 | 0.00 | 0.00 | 85 | 1012.1 |
| 20260905120018 | 22 | 296 | 8.0 | 0.0 | 0.00 | 0.00 | 0.00 | 86 | 1011.9 |
| 20260905114625 | 21 | 300 | 9.7 | 0.0 | 0.00 | 0.00 | 0.00 | 87 | 1011.7 |
| 20260905113100 | 20 | 310 | 9.7 | 0.0 | 0.00 | 0.00 | 0.00 | 89 | 1011.6 |
| 20260905111618 | 20 | 298 | 6.4 | 0.0 | 0.00 | 0.00 | 0.00 | 90 | 1011.5 |
| 20260905110101 | 19 | 298 | 6.4 | 0.0 | 0.00 | 0.00 | 0.00 | 90 | 1011.5 |
| 20260905104616 | 19 | 302 | 6.4 | 0.0 | 0.00 | 0.00 | 0.00 | 91 | 1011.3 |